Flag Weather past 2 weeks in Cambridge, Ontario, Canada

Now
39 °F

Fog.


Feels Like: 32 °F
Forecast: 38 / 41 °F
Wind: 12 mph from Southwest

Location: Waterloo Well

Current Time: Nov 22, 2014 at 10:34:50 PM

Latest Report: Nov 22, 2014 at 10:02 PM


Visibility: 2 mi

Pressure: 29.95 "Hg

Humidity: 100%

Dew point: 39 °F

Location of CambridgeLocation

Historic Weather in Cambridge — Graph

°F

Cambridge temperature yesterday

Maximum temperature yesterday: 25 °F (at 1:00 PM)
Minimum temperature yesterday: 9 °F (at 7:00 AM)
Average temperature yesterday: 18 °F

Past Weeks' High & Low Weather Summary

 TemperatureHumidityPressure
High61 °F (Nov 11, 1:00 PM)100% (Nov 8, 6:00 PM)30.47 "Hg (Nov 8, 6:00 PM)
Low9 °F (Nov 21, 7:00 AM)48% (Nov 11, 1:00 PM)29.55 "Hg (Nov 17, 1:48 PM)
Average29 °F82%29.97 "Hg
* Reported Nov 7 9:00 PM — Nov 22 9:04 PM, Cambridge, Weather by CustomWeather, © 2014

Note: Actual official high and low records may vary slightly from our data, if they occured in-between our weather recording intervals... More about our weather records

Advertising

Cambridge weather history for previous 24 hours

 ConditionsComfort  
Time TempWeatherWind HumidityBarometerVisibility
9:04 PM
Nov 22
39 °FLight rain. Fog.10 mph100%29.95 "Hg2 mi
9:00 PM39 °FLight rain. Fog.12 mph100%29.95 "Hg2 mi
8:00 PM39 °FLight rain. Fog.10 mph93%29.96 "Hg2 mi
7:59 PM39 °FLight rain. Fog.12 mph93%29.96 "Hg2 mi
7:00 PM37 °FFog.10 mph93%29.96 "Hg2 mi
6:03 PM37 °FFog.13 mph93%29.96 "Hg2 mi
5:00 PM37 °FLight rain. Fog.14 mph93%29.95 "Hg3 mi
4:00 PM37 °FLight rain. Fog.15 mph93%29.96 "Hg2 mi
3:58 PM37 °FLight rain. Fog.16 mph93%29.96 "Hg2 mi
3:00 PM36 °FLight rain. Fog.15 mph100%29.98 "Hg2 mi
2:57 PM36 °FLight rain. Fog.14 mph100%29.98 "Hg2 mi
2:00 PM36 °FLight rain. Fog.17 mph100%29.98 "Hg3 mi
1:00 PM36 °FFog.17 mph93%30.00 "Hg3 mi
12:00 PM36 °FLight rain. Low clouds.17 mph93%30.03 "Hg7 mi
11:55 AM36 °FLight rain. Fog.16 mph93%30.04 "Hg6 mi
11:00 AM34 °FFog.14 mph93%30.07 "Hg4 mi
10:00 AM34 °FOvercast.15 mph81%30.09 "Hg9 mi
9:47 AM34 °FMostly cloudy.16 mph75%30.10 "Hg9 mi
9:02 AM30 °FLight snow. Mostly cloudy.16 mph80%30.12 "Hg9 mi
8:00 AM28 °FOvercast.13 mph80%30.17 "Hg9 mi
7:00 AM27 °FPassing clouds.12 mph74%30.18 "Hg9 mi
6:00 AM25 °FPartly cloudy.9 mph80%30.21 "Hg9 mi
5:00 AM25 °FPassing clouds.7 mph80%30.24 "Hg9 mi
4:00 AM23 °FOvercast.8 mph80%30.27 "Hg9 mi
3:00 AM21 °FOvercast.8 mph80%30.29 "Hg9 mi
2:00 AM18 °FOvercast.9 mph86%30.31 "Hg9 mi
1:00 AM18 °FOvercast.7 mph79%30.34 "Hg9 mi
12:00 AM14 °FOvercast.5 mph79%30.36 "Hg9 mi
11:00 PM
Nov 21
16 °FClear.6 mph79%30.37 "Hg9 mi
10:00 PM16 °FPassing clouds.9 mph73%30.40 "Hg9 mi
Weather by CustomWeather, © 2014

See weather overviewHow to use our weather pages